Weather History for Duluth, MN

Change the Weather History Date:

Friday, November 4, 2011

  Actual Average Record
Temperature  
Mean Temperature 42 °F 35 °F  
Max Temperature 53 °F 42 °F 69 °F (1975)
Min Temperature 30 °F 28 °F 4 °F (1991)
Degree Days  
Heating Degree Days 23 30  
Month to date heating degree days 96 118  
Since 1 July heating degree days 948 1243  
Cooling Degree Days 0 0  
Month to date cooling degree days 0 0  
Year to date cooling degree days 314 204  
Moisture  
Dew Point 20 °F    
Average Humidity 46    
Maximum Humidity 65    
Minimum Humidity 26    
Precipitation  
Precipitation 0.00 in 0.07 in 1.02 in (1880)
Month to date precipitation 0.04 0.29  
Year to date precipitation 24.95 27.95  
Snow  
Snow 0.00 in 0.30 in 6.30 in (1993)
Month to date snowfall 0.0 1.1  
Since 1 July snowfall T 3.5  
Since 1 September snowfall T 3.5  
Snow Depth 0.00 in    
Sea Level Pressure  
Sea Level Pressure 30.19 in    
Wind  
Wind Speed 9 mph (South)    
Max Wind Speed 18 mph    
Max Gust Speed 23 mph    
Visibility 10 miles    
Events      
T = Trace of Precipitation, MM = Missing Value Source: NWS Daily Summary

Daily Weather History Graph

Daily Weather History Graph

Search for Another Location

Airport:

Trip Planner

Search our weather history database for the weather conditions in past years. The results will help you decide how hot, cold, wet, or windy it might be!

Date:

Astronomy

Nov. 04, 2011 Rise Set
Actual Time 7:55 AM CDT 5:48 PM CDT
Civil Twilight 7:23 AM CDT 6:20 PM CDT
Nautical Twilight 6:47 AM CDT 6:56 PM CDT
Astronomical Twilight 6:11 AM CDT 7:32 PM CDT
Moon 2:59 PM CDT (11/4) 1:46 AM CDT (11/4)
Length of Visible Light 10h 57m
Length of Day
9h 53m
Waxing Gibbous, 69% of the Moon is Illuminated
Nov 4
Waxing Gibbous
Nov 10
Full
Nov 18
Last Quarter
Nov 25
New
Dec 2
First Quarter

Hourly Weather History & Observations

Time (CDT) Temp. Windchill Dew Point Humidity Pressure Visibility Wind Dir Wind Speed Gust Speed Precip Events Conditions
12:55 AM 35.1 °F 32.2 °F 17.1 °F 48% 30.24 in 10.0 mi SW 3.5 mph - N/A   Clear
1:55 AM 36.0 °F 30.3 °F 19.0 °F 50% 30.24 in 10.0 mi SW 6.9 mph - N/A   Clear
2:55 AM 34.0 °F 28.8 °F 19.0 °F 54% 30.24 in 10.0 mi WSW 5.8 mph - N/A   Clear
3:55 AM 34.0 °F 28.0 °F 19.0 °F 54% 30.23 in 10.0 mi WSW 6.9 mph - N/A   Clear
4:55 AM 34.0 °F - 18.0 °F 52% 30.24 in 10.0 mi Calm Calm - N/A   Clear
5:55 AM 35.1 °F 28.6 °F 19.0 °F 52% 30.24 in 10.0 mi SW 8.1 mph - N/A   Clear
6:55 AM 32.0 °F 28.7 °F 18.0 °F 56% 30.26 in 10.0 mi SW 3.5 mph - N/A   Clear
7:55 AM 30.0 °F 24.1 °F 18.0 °F 61% 30.26 in 10.0 mi South 5.8 mph - N/A   Clear
8:55 AM 33.1 °F 28.7 °F 19.0 °F 56% 30.27 in 10.0 mi South 4.6 mph - N/A   Clear
9:55 AM 37.9 °F 32.1 °F 21.9 °F 53% 30.26 in 10.0 mi SSW 8.1 mph - N/A   Partly Cloudy
10:55 AM 42.1 °F 36.1 °F 21.0 °F 43% 30.26 in 10.0 mi South 10.4 mph - N/A   Clear
11:55 AM 45.0 °F 37.6 °F 21.0 °F 39% 30.24 in 10.0 mi South 17.3 mph - N/A   Partly Cloudy
12:55 PM 46.9 °F - 21.9 °F 37% 30.22 in 10.0 mi South 9.2 mph - N/A   Clear
1:55 PM 51.1 °F - 19.0 °F 28% 30.20 in 10.0 mi South 12.7 mph - N/A   Clear
2:55 PM 52.0 °F - 17.1 °F 25% 30.18 in 10.0 mi South 11.5 mph 20.7 mph N/A   Clear
3:55 PM 50.0 °F - 21.9 °F 33% 30.15 in 10.0 mi SSE 11.5 mph - N/A   Clear
4:55 PM 46.0 °F 41.0 °F 27.0 °F 47% 30.14 in 10.0 mi ESE 10.4 mph - N/A   Clear
5:55 PM 41.0 °F 35.8 °F 30.0 °F 65% 30.13 in 10.0 mi ESE 8.1 mph - N/A   Clear
6:55 PM 44.1 °F 40.1 °F 18.0 °F 35% 30.13 in 10.0 mi SSE 6.9 mph - N/A   Clear
7:55 PM 44.1 °F 39.0 °F 17.1 °F 34% 30.12 in 10.0 mi SSE 9.2 mph - N/A   Clear
8:55 PM 42.8 °F 36.6 °F 19.4 °F 39% 30.05 in 10.0 mi SSE 11.5 mph - N/A   Clear
9:55 PM 42.1 °F 36.1 °F 21.0 °F 43% 30.09 in 10.0 mi SSE 10.4 mph - N/A   Clear
10:55 PM 41.0 °F 33.5 °F 23.0 °F 49% 30.08 in 10.0 mi South 13.8 mph - N/A   Clear
11:55 PM 39.9 °F 32.9 °F 24.1 °F 53% 30.07 in 10.0 mi South 11.5 mph - N/A   Clear